TimePDT,TemperatureF,Dew PointF,Humidity,Sea Level PressureIn,VisibilityMPH,Wind Direction,Wind SpeedMPH,Gust SpeedMPH,PrecipitationIn,Events,Conditions,WindDirDegrees,DateUTC
12:55 AM,59.0,52.0,78,30.10,9.0,Calm,Calm,-,N/A,,Clear,0,2013-03-20 07:55:00
1:55 AM,57.0,51.1,81,30.09,8.0,Calm,Calm,-,N/A,,Clear,0,2013-03-20 08:55:00
2:55 AM,57.0,51.1,81,30.09,8.0,Calm,Calm,-,N/A,,Clear,0,2013-03-20 09:55:00
3:55 AM,54.0,48.9,83,30.08,7.0,NW,3.5,-,N/A,,Clear,320,2013-03-20 10:55:00
4:55 AM,54.0,48.9,83,30.07,7.0,Calm,Calm,-,N/A,,Clear,0,2013-03-20 11:55:00
5:55 AM,55.0,48.9,80,30.06,8.0,Calm,Calm,-,N/A,,Clear,0,2013-03-20 12:55:00
6:55 AM,55.0,50.0,83,30.09,7.0,Calm,Calm,-,N/A,,Clear,0,2013-03-20 13:55:00
7:42 AM,55.4,50.0,82,30.06,5.0,Calm,Calm,-,N/A,,Haze,0,2013-03-20 14:42:00
7:55 AM,55.9,51.1,84,30.10,5.0,Calm,Calm,-,N/A,,Haze,0,2013-03-20 14:55:00
8:55 AM,57.9,52.0,81,30.11,4.0,Calm,Calm,-,N/A,,Haze,0,2013-03-20 15:55:00
9:55 AM,59.0,53.1,81,30.12,5.0,WNW,4.6,-,N/A,,Haze,290,2013-03-20 16:55:00
10:18 AM,60.8,53.6,77,30.09,4.0,West,4.6,-,N/A,,Haze,280,2013-03-20 17:18:00
10:55 AM,64.0,53.1,67,30.12,5.0,West,6.9,-,N/A,,Haze,260,2013-03-20 17:55:00
11:55 AM,64.9,52.0,63,30.10,10.0,Calm,Calm,-,N/A,,Clear,0,2013-03-20 18:55:00
12:55 PM,66.9,51.1,57,30.08,10.0,Variable,5.8,-,N/A,,Clear,0,2013-03-20 19:55:00
1:55 PM,66.0,48.0,52,30.09,10.0,WSW,11.5,-,N/A,,Clear,240,2013-03-20 20:55:00
2:55 PM,66.0,50.0,56,30.05,10.0,SW,5.8,-,N/A,,Clear,230,2013-03-20 21:55:00
3:55 PM,68.0,50.0,52,30.04,10.0,South,6.9,-,N/A,,Clear,190,2013-03-20 22:55:00
4:55 PM,64.0,51.1,63,30.01,10.0,South,10.4,-,N/A,,Clear,190,2013-03-20 23:55:00
5:55 PM,64.0,48.9,58,30.01,10.0,SSW,8.1,-,N/A,,Clear,210,2013-03-21 00:55:00
6:55 PM,62.1,50.0,65,30.00,10.0,SE,5.8,-,N/A,,Clear,140,2013-03-21 01:55:00
7:55 PM,61.0,50.0,67,30.01,10.0,South,5.8,-,N/A,,Clear,190,2013-03-21 02:55:00
8:55 PM,61.0,48.9,64,29.99,10.0,Calm,Calm,-,N/A,,Clear,0,2013-03-21 03:55:00
9:55 PM,59.0,48.0,67,30.00,10.0,East,4.6,-,N/A,,Clear,80,2013-03-21 04:55:00
10:55 PM,59.0,48.0,67,29.99,10.0,NNE,4.6,-,N/A,,Clear,30,2013-03-21 05:55:00
11:55 PM,55.9,48.0,75,29.98,10.0,West,5.8,-,N/A,,Clear,270,2013-03-21 06:55:00